Find Starlink 31559

NORAD ID: 59358 Int'l Des: 2024-060 Owner: SPXS Country: US Constellation: starlink operational
LEOCIRCULAR

リアルタイム位置

3D地球を読み込み中...

Starlink 31559について

説明を読み込み中...

次回通過

Passes for default location (London). Set your location on the main map for personalized predictions.

高度履歴

Loading altitude history...

軌道要素

1 59358U 24060L 26126.48651167 -.00000747 00000-0 -17624-4 0 9991
2 59358 43.0000 293.3180 0001163 264.1324 95.9395 15.27569691118908
Epoch: May 6, 2026 • Age: 14 hours

現在のステータス

高度 484.8 km
速度 7.63 km/s
衛星直下点 32.94°N, 78.28°E
打ち上げ日 Mar 31, 2024
運用期間 2 years
タイプ internet

技術仕様

分類 Payload
質量 730.00 kg
乾燥質量 700.00 kg
総質量 730.00 kg
長さ 0.30 m
直径 4.10 m
スパン 29.00 m
形状 Box + pan
製造者 SPXS
バスタイプ Starlink V2M
フェーズステータス In Orbit
所有者/国 SPXS/US

Most Searched